Regional Weather Roundup
Issued by NWS

Home | Current Version | Previous Version | Graphics & Text | Print | Product List | Glossary On
Versions: 1 2 3 4 5 6 7 8 9 10 11 12 13 14 15 16 17 18 19 20 21 22 23 24 25 26 27 28 29 30 31 32 33 34 35 36 37 38 39 40 41 42 43 44 45 46 47 48 49 50
000
ASUS43 KMPX 131301
RWRMN
WEATHER ROUNDUP FOR MINNESOTA
NATIONAL WEATHER SERVICE TWIN CITIES/CHANHASSEN MN
700 AM CST WED DEC 13 2017


NOTE: "FAIR" INDICATES FEW OR NO CLOUDS BELOW 12,000 FEET WITH NO
SIGNIFICANT WEATHER AND/OR OBSTRUCTIONS TO VISIBILITY. N/A MEANS
CURRENT SKY AND/OR WEATHER CONDITIONS ARE NOT AVAILABLE.

MNZ060>063-068>070-131400-
   Twin Cities Metro

CITY           SKY/WX    TMP DP  RH WIND       PRES   REMARKS
TWIN CITIES    CLOUDY    27  25  92 N8        29.36S WCI  19
ST PAUL        PTCLDY    28  23  81 N9        29.37R WCI  19
CRYSTAL        CLOUDY    27  21  78 N8        29.36S WCI  19
BLAINE         CLOUDY    27  23  86 N6        29.37R WCI  20
LAKEVILLE        N/A     27  25  93 N3        29.32S
EDEN PRAIRIE   PTCLDY    30  24  78 N7        29.34R WCI  23
SOUTH ST PAUL  PTCLDY    29  24  84 N6        29.35S WCI  22
LAKE ELMO      FAIR      27  21  80 N6        29.36F WCI  20
$$
MNZ001>005-007-008-013>017-022>024-027-028-131400-
   Northwest Minnesota

CITY           SKY/WX    TMP DP  RH WIND       PRES   REMARKS
BEMIDJI        CLOUDY    19  18  95 N12G18    29.53R FOG     WCI   6
HALLOCK        CLOUDY    25  21  86 N21       29.67R WCI  10
ROSEAU         CLOUDY    18  12  79 N9        29.64R FOG     WCI   6
WARROAD        CLOUDY    16  10  79 NW9       29.64R FOG     WCI   4
THIEF RVR FALL LGT SNOW  21  19  93 N22       29.62R FOG     WCI   5
CROOKSTON      CLOUDY    25  23  93 N29       29.65R FOG     WCI   8
FOSSTON        CLOUDY    19  18  93 NW22      29.60R FOG     WCI   3
DETROIT LAKES  CLOUDY    27  27 100 N28G35    29.57R FOG     WCI  11
MOORHEAD       CLOUDY    28  25  86 N25G33    29.65R WCI  14
PARK RAPIDS    CLOUDY    27  23  85 N24G33    29.48R WCI  12
$$
MNZ006-009>011-018-025>026-131400-
   North Central Minnesota

CITY           SKY/WX    TMP DP  RH WIND       PRES   REMARKS
BAUDETTE       CLOUDY    14  11  87 N6        29.58R WCI   5
FLAG ISLAND    FLURRIES  12  10  92 N9        29.62R WCI   0
INTL FALLS     CLOUDY    15  11  83 NE7       29.56R WCI   5
WASKISH        CLOUDY    16  14  93 N7        29.57R FOG     WCI   6
BIG FORK       CLOUDY    16  12  86 N5        29.51R WCI   9
LONGVILLE      CLOUDY    18  14  86 N3        29.48R
GRAND RAPIDS   LGT SNOW  16  13  88 N7        29.50R FOG     WCI   6
CRANE LAKE     LGT SNOW  16  12  86 CALM      29.57R
ORR            LGT SNOW  16  12  86 CALM      29.50R
COOK           LGT SNOW  18  16  93 CALM      29.52R
WALKER         CLOUDY    19  17  93 NW8       29.50R WCI   8
$$
MNZ012-019>021-037-131400-
   Northeast Minnesota

CITY           SKY/WX    TMP DP  RH WIND       PRES   REMARKS
DULUTH         LGT SNOW  19  17  92 E9        29.43R FOG     WCI   8
ELY            LGT SNOW  18  14  86 NE6       29.50R WCI   9
HIBBING        CLOUDY    17  14  88 N5        29.48R WCI  10
EVELETH        CLOUDY    17  14  85 N3        29.49R
DULUTH HARBOR  LGT SNOW  21  19  93 E15       29.49S WCI   8
TWO HARBORS    LGT SNOW  25  19  80 E8        29.45R WCI  16
GRAND MARAIS     N/A     23  19  85 E24G32    29.58S WCI   7
G MARAIS ARPRT LGT SNOW  16   9  73 E10G18    29.50S WCI   3
$$
MNZ029>031-032-039>041-046>048-054>057-064-131400-
   West Central Minnesota

CITY           SKY/WX    TMP DP  RH WIND       PRES   REMARKS
FERGUS FALLS   CLOUDY    28  27  93 N26G44    29.60R WCI  13
WHEATON        CLOUDY    34  27  75 NW36G49   29.62R WCI  19
MORRIS         CLOUDY    30  28  93 NW36G48   29.53R WCI  14
ALEXANDRIA     CLOUDY    32  29  88 NW22G35   29.47R WCI  19
ELBOW LAKE     CLOUDY    28  26  92 NW30G43   29.54R WCI  12
WADENA         CLOUDY    28  27  93 NW25G32   29.47R WCI  14
GLENWOOD       PTCLDY    34  30  86 NW23G31   29.46R WCI  22
APPLETON       CLOUDY    36  30  80 N29G40    29.55R
BENSON           N/A     34  28  80 N26G46    29.52R WCI  21
ORTONVILLE     CLOUDY    36  30  80 N30G40    29.58R
MADISON        CLOUDY    37  37 100 NW28G41   29.56R
WILLMAR        CLOUDY    36  34  93 NW24G39   29.47R
$$
MNZ033>034-036-042>043-049>051-058-059-131400-
   Central Minnesota

CITY           SKY/WX    TMP DP  RH WIND       PRES   REMARKS
ST CLOUD       LGT SNOW  24  22  91 N9        29.42R FOG     WCI  14
SAUK CENTRE    CLOUDY    33  31  92 NW13G25   29.44R WCI  24
PAYNESVILLE    CLOUDY    33  33  98 NW15      29.44R WCI  23
AITKIN         CLOUDY    16  14  93 N5        29.44R WCI   9
PINE RIVER     CLOUDY    19  18  93 N6        29.51R WCI  11
BRAINERD       CLOUDY    21  18  88 N12       29.45R WCI   9
STAPLES        CLOUDY    25  21  86 N9        29.46R WCI  15
LONG PRAIRIE   CLOUDY    32  30  93 W14       29.44R WCI  22
LITTLE FALLS   CLOUDY    27  21  80 NW6       29.44R WCI  20
LITCHFIELD       N/A     34  32  93 NW13      29.43R WCI  25
BUFFALO        FLURRIES  27  24  89 NW7       29.41R WCI  19
MAPLE LAKE     LGT SNOW  27  26  95 NW8       29.42R WCI  19
HUTCHINSON     LGT SNOW  33  32  94 NW17G25   29.42R WCI  23
$$
MNZ037-044-045-052-053-131400-
   East Central Minnesota

CITY           SKY/WX    TMP DP  RH WIND       PRES   REMARKS
PRINCETON      LGT SNOW  25  21  86 N7        29.41R WCI  17
MORA           LGT SNOW  21  19  93 N3        29.43R
CAMBRIDGE      LGT SNOW  25  18  74 N5        29.41R VSB 3/4 WCI  19
RUSH CITY      LGT SNOW  22  19  89 N5        29.41R VSB 1   WCI  16
MOOSE LAKE     CLOUDY    18  14  86 CALM      29.43R FOG
HINCKLEY       LGT SNOW  21  21 100 N9        29.42R VSB 1   WCI  11
CLOQUET        CLOUDY    18  14  86 NE6       29.43R WCI   9
MCGREGOR       CLOUDY    18  14  86 N6        29.46R WCI   9
$$
MNZ071>073-080-081-089-090-097-098-131400-
   Southwest Minnesota

CITY           SKY/WX    TMP DP  RH WIND       PRES   REMARKS
MONTEVIDEO     CLOUDY    36  32  87 N32G52    29.52R
GRANITE FALLS  RAIN      36  33  91 NW24G38   29.52R
CANBY          CLOUDY    38  34  87 W28G36    29.58R
MARSHALL       LGT RAIN  36  33  89 NW30G39   29.52R
REDWOOD FALLS  LGT SNOW  35  31  85 NW23G37   29.46R FOG     WCI  23
OLIVIA         LGT RAIN  34  32  93 NW29      29.45R WCI  20
PIPESTONE      CLOUDY    36  32  87 NW31G39   29.56R
WINDOM         RAIN      36  25  64 NW29G37   29.45R
WORTHINGTON    MIX PCPN  37  34  89 NW30G37   29.51R
JACKSON        CLOUDY    37  32  81 MISG      29.45R
SLAYTON        LGT RAIN  35  34  93 NW29G39   29.50R WCI  22
$$
MNZ065>067-074>077-082>085-091>093-131400-
   South Central Minnesota

CITY           SKY/WX    TMP DP  RH WIND       PRES   REMARKS
MANKATO        CLOUDY    37  28  70 NW23G33   29.36R
NEW ULM        CLOUDY    37  30  75 NW30G36   29.41R
ST JAMES       PTCLDY    37  32  81 NW32G43   29.42R
FAIRMONT       PTCLDY    39  31  72 NW30G43   29.40R
GLENCOE        CLOUDY    35  30  81 NW18G26   29.38R WCI  24
FARIBAULT      CLOUDY    36  27  69 W14G23    29.32R
OWATONNA       CLOUDY    36  28  75 NW18G24   29.31R
WASECA         CLOUDY    36  28  75 W20G28    29.34R
ALBERT LEA     PTCLDY    37  25  60 NW13G22   29.32R
$$
MNZ078>079-086>088-094>096-131400-
   Southeast Minnesota

CITY           SKY/WX    TMP DP  RH WIND       PRES   REMARKS
ROCHESTER      CLOUDY    28  25  88 SW7       29.29F WCI  21
RED WING       CLOUDY    30  21  69 NE3       29.33R
STANTON        CLOUDY    31  26  81 CALM      29.30S
DODGE CENTER   CLOUDY    32  25  74 W13       29.29S WCI  22
WINONA         CLOUDY    30  25  80 E6        29.35F WCI  24
PRESTON        CLOUDY    28  23  81 S9        29.30F WCI  19
$$
ABBREVIATIONS USED IN REMARKS
   TC - TEMPERATURES IN CELSIUS
  WCI - WIND CHILL INDEX
   HX - HEAT INDEX
  VSB - VISIBILITY
$$




USA.gov is the U.S. government's official web portal to all federal, state and local government web resources and services.